Regional Weather Roundup
Issued by NWS

Home | Current Version | Previous Version | Graphics & Text | Print | Product List | Glossary On
Versions: 1 2 3 4 5 6 7 8 9 10 11 12 13 14 15 16 17 18 19 20 21 22 23 24 25 26 27
000
ASUS45 KBOU 261510
RWRCO

WEATHER ROUNDUP FOR COLORADO
NATIONAL WEATHER SERVICE DENVER/BOULDER CO
900 AM MDT SAT MAY 26 2018

NOTE: "FAIR" INDICATES FEW OR NO CLOUDS BELOW 12000 FEET WITH NO
SIGNIFICANT WEATHER AND/OR OBSTRUCTIONS TO VISIBILITY.

COZ001>005-013-030-031-261600-
...NORTHWEST COLORADO...

CITY           SKY/WX    TMP DP  RH WIND       PRES   REMARKS
CRAIG          FAIR      65  35  33 E10       30.04F
HAYDEN         FAIR      61  32  33 E14       30.08F
MEEKER         FAIR      61  29  29 CALM      30.06F
RANGELY        FAIR      61  31  31 E5        29.96F
RABBIT EARS PA FAIR      52  18  25 S8G21     30.34F
STEAMBOAT SPGS FAIR      52  35  51 CALM      30.10F
WALDEN         FAIR      55  32  41 CALM      30.20S
$$

COZ006>008-011-261600-
...WEST CENTRAL VALLEYS...

CITY           SKY/WX    TMP DP  RH WIND       PRES   REMARKS
GRAND JUNCTION FAIR      75  17  11 E18       29.95F
MONTROSE       FAIR      69  19  15 E13       30.06F
EAGLE          FAIR      57  22  25 CALM      30.16F
RIFLE          FAIR      65  25  22 CALM      30.02F
DELTA          FAIR      73  17  12 NE9       30.03F
NUCLA          FAIR      72  18  13 SE5       30.09F
$$

COZ017>023-064>068-261600-
...SOUTHWEST COLORADO...

CITY           SKY/WX    TMP DP  RH WIND       PRES   REMARKS
DURANGO        FAIR      58  21  24 E7        30.15F
CORTEZ         FAIR      65  27  23 CALM      30.07F
PAGOSA SPRINGS FAIR      61  11  14 CALM      30.23S
TELLURIDE      FAIR      64   3   9 S8        30.26F
WOLF CREEK PAS FAIR      48  10  21 SE6       30.52S
$$

COZ009-010-012-014-032>034-037-058>063-261600-
...CENTRAL COLORADO...

CITY           SKY/WX    TMP DP  RH WIND       PRES   REMARKS
ASPEN          FAIR      61  23  23 CALM      30.16F
BUENA VISTA    FAIR      61  24  25 CALM      30.22S
COPPER MTN     FAIR      54   9  16 S7        30.47R
BERTHOUD PASS  FAIR      45  34  65 NW14G22   30.49R
COTTONWOOD PAS FAIR      63  16  16 SE5       30.33S
GUNNISON       FAIR      53  19  26 CALM      30.22F
GRANBY         FAIR      52  32  47 CALM      30.24S
KREMMLING      FAIR      55  32  41 CALM      30.21F
LEADVILLE      FAIR      54  20  26 CALM      30.31F
MONARCH PASS   FAIR      52   5  15 MISG      30.57S
SALIDA         FAIR      64  23  21 NW9       30.25F
SUNLIGHT       FAIR      50  10  20 S5        30.38S
WILKERSON PASS FAIR      52  12  20 SW10G18   30.44F
$$

COZ069>075-261600-
...SAN LUIS VALLEY/SANGRE DE CRISTO MOUNTAINS...

CITY           SKY/WX    TMP DP  RH WIND       PRES   REMARKS
ALAMOSA        FAIR      55  24  30 SW5       30.21S
DEL NORTE      FAIR      57  16  19 CALM      30.24S
LA VETA PASS   FAIR      59  16  18 MISG      30.47R
SAGUACHE       NOT AVBL
$$

COZ035-036-038>040-261600-
...NORTHERN COLORADO FRONT RANGE...

CITY           SKY/WX    TMP DP  RH WIND       PRES   REMARKS
DENVER INTL AP FAIR      73  41  31 SW9       29.98S
AURORA         NOT AVBL
FRONT RANGE AP MOSUNNY   75  41  29 SW13      29.99S
ERIE MUNI ARPT FAIR      69  42  37 CALM      30.02S
BOULDER MUN AP FAIR      68  41  37 CALM      29.97S HAZE
CENTENNIAL     FAIR      76  43  30 N5        30.01S
BROOMFIELD     NOT AVBL
FORT COLLINS   FAIR      68  45  43 CALM      29.96F
LONGMONT       FAIR      73  43  34 CALM      29.97F
$$

COZ041-046-047-076>085-087-088-261600-
...PIKES PEAK/PALMER DIVIDE AND SOUTHERN FOOTHILLS...

CITY           SKY/WX    TMP DP  RH WIND       PRES   REMARKS
COLO. SPRINGS  FAIR      70  46  42 E6        30.05F
A. F. ACADEMY  FAIR      71  43  37 CALM      30.06F
SCHRIEVER AFB  NOT AVBL
CHEYENNE MTN   FAIR      66  47  48 CALM      30.04S
ELLICOTT         N/A    N/A N/A N/A CALM      30.03F
FALCON         FAIR      70  44  38 E3        30.10S
FORT CARSON    NOT AVBL
LIMON          FAIR      73  51  46 S13       29.99F
MONUMENT HILL  FAIR      75  27  16 W13       30.11S
CANON CITY     SUNNY     81  36  19 W9        29.98F
WALSENBURG     FAIR      82  16   8 SW10      30.05S
TRINIDAD       FAIR      77  30  17 VRB3      30.03S
$$

COZ042>045-048>051-090-091-261600-
...NORTHEAST COLORADO...

CITY           SKY/WX    TMP DP  RH WIND       PRES   REMARKS
GREELEY ARPT   FAIR      67  51  56 CALM      29.95S
AKRON          FAIR      78  53  41 S18G26    29.94S
BURLINGTON       N/A     81  55  40 S23G35    29.94S
WRAY           FAIR      81  55  41 S15       29.90F
YUMA           FAIR      77  39  25 S14       29.91F
STERLING       FAIR      72  55  56 S5        29.90F
HOLYOKE        FAIR      79  61  53 S7        29.91F
FORT MORGAN    FAIR      73  51  46 SE5       29.94S
$$

COZ086-089-092>099-261600-
...SOUTHEAST COLORADO...

CITY           SKY/WX    TMP DP  RH WIND       PRES   REMARKS
PUEBLO         FAIR      73  49  42 W3        29.95F
LA JUNTA       FAIR      73  46  38 SW9       29.94S
LAMAR          FAIR      80  56  43 E6        29.90S
SPRINGFIELD      N/A     78  54  43 SE9       29.95F
$$




USA.gov is the U.S. government's official web portal to all federal, state and local government web resources and services.